[[{"header":{"parameterUnit":"m.s-1","parameterCategory":1,"la1":30.2991,"la2":30.254,"lo1":-89.0895,"lo2":-89.0444,"dy":0.0017,"dx":0.0017,"nx":28,"ny":28,"refTime":"2023-11-13T03:00:00:Z","depth":0,"parameterNumber":2,"parameterNumberName":"U-component_of_WINDS"},"data":[0,0,0,0,0,0,0,0,0,0,0,0,0,0,0,0,0,0,0,0,0,0,0,0,0,0,0,0,0,0,0,0,0,0,0,0,0,0,0,0,0,0,0,0,0,0,0,0,0,0,0,0,0,0,0,0,0,0,-1.3842,-1.3843,0,-1.3867,-1.3868,-1.3868,-1.3841,-1.384,-1.3839,-1.3838,-1.3863,-1.3865,-1.3866,0,0,0,0,0,0,0,0,0,0,0,0,0,-1.3771,-1.3772,-1.3842,-1.3843,-1.3843,-1.3867,-1.3868,-1.3868,-1.3841,-1.384,-1.3838,-1.3837,-1.3862,-1.3864,-1.3866,0,0,0,0,0,0,0,0,0,0,0,0,0,-1.38,-1.3773,-1.3842,-1.3832,-1.3832,-1.3867,-1.3868,-1.3868,-1.3841,-1.3839,-1.3838,-1.3836,-1.3862,-1.3864,-1.3867,-1.3913,0,0,-1.3874,-1.3875,0,0,0,0,0,0,0,0,-1.3798,-1.3802,-1.3834,-1.3833,-1.3833,-1.3849,-1.3852,-1.3883,-1.3841,-1.3838,-1.3838,-1.3836,-1.386,-1.3862,-1.387,-1.3914,-1.3915,-1.3874,-1.3876,-1.3877,-1.3878,0,0,0,0,0,0,0,-1.3796,-1.3801,-1.3852,-1.3834,-1.3833,-1.3827,-1.3829,-1.3857,-1.3857,-1.3838,-1.3836,-1.3839,-1.3859,-1.3868,-1.3871,-1.3916,-1.3874,-1.3876,-1.3878,-1.3879,-1.3999,-1.4001,0,0,0,0,0,0,-1.3795,-1.38,-1.3851,-1.3853,-1.3811,-1.3829,-1.3832,-1.3845,-1.3857,-1.3857,-1.384,-1.3838,-1.3864,-1.3868,-1.3871,-1.3927,-1.3877,-1.3879,-1.3881,-1.3997,-1.3999,-1.4001,0,0,0,0,0,0,-1.3794,-1.38,-1.385,-1.3826,-1.3832,-1.3832,-1.3848,-1.3847,-1.3856,-1.3859,-1.3858,-1.385,-1.3863,-1.3868,-1.3903,-1.3928,-1.388,-1.3882,-1.3995,-1.3998,-1.4,-1.4039,0,0,0,0,0,0,-1.3792,-1.38,-1.3818,-1.3826,-1.3833,-1.3882,-1.3849,-1.3848,-1.386,-1.3857,-1.3867,-1.3868,-1.3863,-1.3899,-1.3905,-1.393,-1.3884,-1.3993,-1.3996,-1.3999,-1.4035,-1.4042,-1.4048,0,0,0,0,0,-1.3789,-1.3827,-1.3819,-1.3825,-1.3855,-1.3883,-1.3887,-1.3881,-1.3862,-1.388,-1.3882,-1.3867,-1.3923,-1.3903,-1.391,-1.3936,-1.3991,-1.3995,-1.3999,-1.4032,-1.4041,-1.4048,0,0,0,0,0,0,-1.3822,-1.3828,-1.3819,-1.3861,-1.3872,-1.3879,-1.3901,-1.389,-1.3906,-1.3903,-1.3894,-1.3896,-1.3934,-1.3938,-1.3915,-1.3981,-1.3954,-1.396,-1.3977,-1.3986,-1.3992,-1.3991,-1.3886,0,0,0,0,0,-1.3833,-1.3856,-1.386,-1.3897,-1.3903,-1.3901,-1.3913,-1.3907,-1.3918,-1.3922,-1.3927,-1.3938,-1.3958,-1.3972,-1.399,-1.4035,-1.4037,-1.4056,-1.4062,-1.4068,-1.4073,-1.4097,-1.4106,-1.4014,-1.4014,-1.4014,0,0,-1.3859,-1.3865,-1.388,-1.3903,-1.3911,-1.3935,-1.3905,-1.3931,-1.3948,-1.3926,-1.396,-1.3963,-1.3975,-1.4015,-1.4033,-1.402,-1.4099,-1.4073,-1.4077,-1.4079,-1.4102,-1.4111,-1.4119,-1.4016,-1.4016,-1.4016,0,0,-1.3916,-1.3923,-1.3955,-1.3963,-1.3975,-1.3974,-1.3981,-1.399,-1.3991,-1.4025,-1.4009,-1.4029,-1.4064,-1.4073,-1.4082,-1.4143,-1.413,-1.4149,-1.4184,-1.4207,-1.4215,-1.4221,-1.4244,-1.4252,-1.4154,-1.4154,-1.4154,0,-1.3946,-1.3981,-1.3972,-1.4,-1.4011,-1.3991,-1.4023,-1.4031,-1.4049,-1.4057,-1.4042,-1.4085,-1.4092,-1.4134,-1.4149,-1.4157,-1.4165,-1.4149,-1.4214,-1.4221,-1.4227,-1.4248,-1.4257,-1.4156,-1.4156,-1.4156,-1.4155,0,-1.4017,-1.4042,-1.4065,-1.4083,-1.4097,-1.4126,-1.4122,-1.4136,-1.4129,-1.4129,-1.4163,-1.417,-1.419,-1.4199,-1.4192,-1.4241,-1.4232,-1.4216,-1.4189,-1.4238,-1.4258,-1.4266,-1.4159,-1.4159,-1.4158,-1.4157,0,0,-1.4098,-1.411,-1.4119,-1.4127,-1.4138,-1.4157,-1.4185,-1.4205,-1.4218,-1.423,-1.4254,-1.4283,-1.4268,-1.4279,-1.4272,-1.4293,-1.4342,-1.4274,-1.4274,-1.4287,-1.4397,-1.441,-1.442,-1.4332,-1.4334,-1.4335,-1.4396,0,-1.4157,-1.4207,-1.4199,-1.4247,-1.427,-1.4251,-1.4276,-1.4285,-1.4286,-1.4305,-1.4305,-1.4327,-1.4304,-1.4311,-1.433,-1.4332,-1.4364,-1.4327,-1.4355,-1.4357,-1.4355,-1.443,-1.4445,-1.4502,-1.4404,-1.4405,-1.4406,0,-1.4233,-1.4249,-1.4299,-1.4307,-1.4316,-1.4339,-1.4356,-1.4374,-1.4384,-1.4383,-1.4395,-1.4384,-1.4412,-1.4384,-1.4423,-1.4398,-1.4409,-1.4411,-1.4413,-1.4417,-1.4386,-1.4437,-1.452,-1.4529,-1.4418,-1.4417,-1.4416,0,-1.4289,-1.4322,-1.4356,-1.4363,-1.4373,-1.439,-1.4394,-1.4403,-1.4415,-1.443,-1.4438,-1.4456,-1.4466,-1.448,-1.4474,-1.4454,-1.4514,-1.4485,-1.4515,-1.4515,-1.453,-1.453,-1.4617,-1.4534,-1.4534,-1.4534,-1.4534,0,-1.4357,-1.4389,-1.4381,-1.4403,-1.4438,-1.4428,-1.4463,-1.4466,-1.4473,-1.4495,-1.4479,-1.4499,-1.449,-1.451,-1.4505,-1.4539,-1.4543,-1.4543,-1.4542,-1.4546,-1.4546,-1.4554,-1.4551,-1.4536,-1.4536,-1.4535,-1.4535,0,-1.4426,-1.4422,-1.4459,-1.4465,-1.4467,-1.4492,-1.4498,-1.4518,-1.4516,-1.4544,-1.4549,-1.4547,-1.457,-1.4565,-1.4589,-1.4586,-1.4629,-1.4622,-1.4626,-1.4625,-1.4655,-1.4653,-1.4752,-1.4765,-1.4673,-1.4674,-1.4674,0,-1.447,-1.4494,-1.4503,-1.4516,-1.4522,-1.4544,-1.4556,-1.4547,-1.4561,-1.4574,-1.4593,-1.4613,-1.463,-1.4666,-1.4667,-1.4686,-1.468,-1.4713,-1.4683,-1.4686,-1.4682,-1.4682,-1.4684,-1.472,-1.4721,-1.4722,-1.4723,0,-1.455,-1.4547,-1.4566,-1.4584,-1.4599,-1.4612,-1.4625,-1.4636,-1.4628,-1.4644,-1.4667,-1.468,-1.4704,-1.4726,-1.4743,-1.4747,-1.4734,-1.4732,-1.474,-1.4745,-1.4747,-1.4748,-1.4644,-1.473,-1.473,-1.4729,-1.4729,-1.4728,-1.4609,-1.463,-1.464,-1.4661,-1.4669,-1.468,-1.47,-1.47,-1.4719,-1.4739,-1.4732,-1.4758,-1.4767,-1.4789,-1.4796,-1.4816,-1.4803,-1.4815,-1.4818,-1.4821,-1.4826,-1.4742,-1.4819,-1.4818,-1.4818,-1.4818,-1.4818,0,-1.469,-1.4695,-1.4714,-1.4732,-1.4748,-1.4734,-1.4746,-1.4761,-1.4784,-1.4794,-1.481,-1.4836,-1.4856,-1.4858,-1.4877,-1.4893,-1.4888,-1.4899,-1.4898,-1.49,-1.4835,-1.4827,-1.4903,-1.4903,-1.4903,-1.4903,-1.4903,-1.4903,-1.4734,-1.4769,-1.4766,-1.4805,-1.4809,-1.4835,-1.4843,-1.4854,-1.4861,-1.4891,-1.4908,-1.4909,-1.4916,-1.4935,-1.4953,-1.4952,-1.4961,-1.4975,-1.4972,-1.4913,-1.4904,-1.4896,-1.4889,-1.4976,-1.4976,-1.5035,-1.5036,-1.5036]},{"header":{"parameterUnit":"m.s-1","parameterCategory":1,"la1":30.2991,"la2":30.254,"lo1":-89.0895,"lo2":-89.0444,"dy":0.0017,"dx":0.0017,"nx":28,"ny":28,"refTime":"2023-11-13T03:00:00:Z","depth":0,"parameterNumber":3,"parameterNumberName":"V-component_of_WINDS"},"data":[0,0,0,0,0,0,0,0,0,0,0,0,0,0,0,0,0,0,0,0,0,0,0,0,0,0,0,0,0,0,0,0,0,0,0,0,0,0,0,0,0,0,0,0,0,0,0,0,0,0,0,0,0,0,0,0,0,0,-4.1976,-4.1976,0,-4.2017,-4.2018,-4.2018,-4.1997,-4.1996,-4.1995,-4.1994,-4.2031,-4.2033,-4.2035,0,0,0,0,0,0,0,0,0,0,0,0,0,-4.1874,-4.1876,-4.1976,-4.1976,-4.1977,-4.2017,-4.2018,-4.2018,-4.1997,-4.1996,-4.1995,-4.1993,-4.2031,-4.2033,-4.2035,0,0,0,0,0,0,0,0,0,0,0,0,0,-4.1917,-4.1876,-4.1976,-4.1971,-4.1971,-4.2017,-4.2018,-4.2018,-4.1997,-4.1996,-4.1994,-4.1993,-4.203,-4.2033,-4.2036,-4.2087,0,0,-4.2045,-4.2046,0,0,0,0,0,0,0,0,-4.1914,-4.192,-4.1971,-4.1972,-4.1972,-4.2,-4.1995,-4.2041,-4.1998,-4.1987,-4.1994,-4.1992,-4.2022,-4.2026,-4.2037,-4.2088,-4.209,-4.2045,-4.2047,-4.2048,-4.2049,0,0,0,0,0,0,0,-4.1911,-4.1919,-4.1992,-4.1972,-4.1972,-4.1966,-4.197,-4.2004,-4.2013,-4.1988,-4.1987,-4.1992,-4.2022,-4.2034,-4.2037,-4.2091,-4.2045,-4.2048,-4.205,-4.2051,-4.2187,-4.2188,0,0,0,0,0,0,-4.1909,-4.1916,-4.1991,-4.1993,-4.1939,-4.1969,-4.1974,-4.1993,-4.2013,-4.2014,-4.1994,-4.1991,-4.203,-4.2034,-4.2039,-4.21,-4.2048,-4.2051,-4.2053,-4.2185,-4.2187,-4.2189,0,0,0,0,0,0,-4.1907,-4.1916,-4.1989,-4.1954,-4.1963,-4.1972,-4.1994,-4.1994,-4.2007,-4.2017,-4.2018,-4.2005,-4.2028,-4.2034,-4.2075,-4.2101,-4.2052,-4.2055,-4.2183,-4.2185,-4.2188,-4.2224,0,0,0,0,0,0,-4.1904,-4.1916,-4.1936,-4.1955,-4.1965,-4.2027,-4.1996,-4.1996,-4.2013,-4.201,-4.2028,-4.2029,-4.2028,-4.2071,-4.2078,-4.2105,-4.2058,-4.218,-4.2184,-4.2187,-4.222,-4.2227,-4.2233,0,0,0,0,0,-4.1901,-4.1943,-4.1937,-4.1946,-4.1991,-4.2028,-4.2034,-4.2033,-4.2015,-4.2035,-4.2041,-4.2028,-4.2097,-4.2075,-4.2083,-4.2111,-4.2179,-4.2183,-4.2187,-4.2217,-4.2226,-4.2233,0,0,0,0,0,0,-4.1925,-4.1945,-4.1939,-4.1989,-4.2007,-4.2025,-4.205,-4.2042,-4.2064,-4.206,-4.2057,-4.2061,-4.2104,-4.2111,-4.2086,-4.2161,-4.2135,-4.2141,-4.2155,-4.2164,-4.217,-4.2167,-4.206,0,0,0,0,0,-4.1936,-4.1966,-4.1982,-4.2024,-4.2034,-4.2041,-4.2056,-4.2054,-4.2072,-4.2079,-4.2089,-4.2105,-4.2131,-4.2147,-4.2171,-4.2221,-4.2224,-4.2244,-4.225,-4.2256,-4.2261,-4.2288,-4.2297,-4.2202,-4.2202,-4.2202,0,0,-4.1959,-4.1974,-4.1993,-4.203,-4.2043,-4.2073,-4.2047,-4.2079,-4.2101,-4.2083,-4.2124,-4.2131,-4.2149,-4.2195,-4.2216,-4.2203,-4.2288,-4.2261,-4.2265,-4.2267,-4.2293,-4.2302,-4.231,-4.2205,-4.2205,-4.2204,0,0,-4.2017,-4.2032,-4.207,-4.2084,-4.2106,-4.2111,-4.212,-4.2138,-4.2143,-4.2184,-4.2172,-4.2196,-4.224,-4.2254,-4.2266,-4.233,-4.2319,-4.2338,-4.2372,-4.2399,-4.2406,-4.2413,-4.2436,-4.2445,-4.2343,-4.2343,-4.2343,0,-4.2043,-4.2089,-4.2089,-4.2123,-4.214,-4.2127,-4.2165,-4.2178,-4.2206,-4.2217,-4.2202,-4.2258,-4.2269,-4.2318,-4.2334,-4.2344,-4.2354,-4.2336,-4.2406,-4.2412,-4.2418,-4.244,-4.2449,-4.2345,-4.2345,-4.2345,-4.2345,0,-4.212,-4.2152,-4.2179,-4.2209,-4.2228,-4.2264,-4.2268,-4.2287,-4.2283,-4.2289,-4.233,-4.2343,-4.237,-4.2381,-4.2377,-4.243,-4.2421,-4.2406,-4.2379,-4.243,-4.245,-4.2459,-4.2348,-4.2348,-4.2347,-4.2346,0,0,-4.2194,-4.2225,-4.2235,-4.2248,-4.2272,-4.2296,-4.233,-4.2358,-4.2375,-4.2394,-4.2423,-4.246,-4.2447,-4.2461,-4.2459,-4.2482,-4.2533,-4.2464,-4.2464,-4.2477,-4.2592,-4.2604,-4.2614,-4.2525,-4.2527,-4.2528,-4.2591,0,-4.2254,-4.2317,-4.2319,-4.2375,-4.2405,-4.2394,-4.2424,-4.2441,-4.2447,-4.2471,-4.2477,-4.2504,-4.2484,-4.2493,-4.2515,-4.2522,-4.2556,-4.2517,-4.2551,-4.2552,-4.2548,-4.2624,-4.2637,-4.2695,-4.2599,-4.26,-4.2601,0,-4.2333,-4.2358,-4.2418,-4.2439,-4.2451,-4.2478,-4.2504,-4.2528,-4.2547,-4.2549,-4.2566,-4.256,-4.2594,-4.2566,-4.2613,-4.2586,-4.26,-4.2605,-4.2608,-4.2611,-4.258,-4.263,-4.2714,-4.2723,-4.2614,-4.2613,-4.2612,0,-4.2382,-4.243,-4.2473,-4.2484,-4.2509,-4.2528,-4.2539,-4.2556,-4.2573,-4.2595,-4.2606,-4.2631,-4.2645,-4.2664,-4.2664,-4.2644,-4.2711,-4.2683,-4.2714,-4.2714,-4.2729,-4.2728,-4.2816,-4.2737,-4.2737,-4.2736,-4.2736,0,-4.2449,-4.2487,-4.2495,-4.2521,-4.2563,-4.2563,-4.2604,-4.2613,-4.2628,-4.2655,-4.2646,-4.2671,-4.267,-4.2695,-4.2695,-4.2733,-4.2739,-4.2742,-4.2741,-4.2743,-4.2743,-4.2752,-4.2748,-4.2739,-4.2738,-4.2738,-4.2737,0,-4.2511,-4.2518,-4.2564,-4.2584,-4.259,-4.262,-4.2636,-4.2661,-4.2666,-4.27,-4.2708,-4.2716,-4.2745,-4.2747,-4.278,-4.278,-4.2827,-4.2822,-4.2822,-4.2821,-4.2851,-4.2849,-4.2949,-4.2963,-4.2874,-4.2875,-4.2876,0,-4.2554,-4.2583,-4.2607,-4.2626,-4.2638,-4.2667,-4.2685,-4.2686,-4.2705,-4.2729,-4.2751,-4.2779,-4.2802,-4.2849,-4.2856,-4.2881,-4.2877,-4.2911,-4.2881,-4.2882,-4.2878,-4.2877,-4.288,-4.2916,-4.2917,-4.2918,-4.2919,0,-4.263,-4.2632,-4.2659,-4.2688,-4.2711,-4.2733,-4.2753,-4.2768,-4.2772,-4.2793,-4.2824,-4.2842,-4.2877,-4.2905,-4.293,-4.2939,-4.2929,-4.2928,-4.2937,-4.2939,-4.2938,-4.2939,-4.2838,-4.2926,-4.2925,-4.2925,-4.2924,-4.2924,-4.2684,-4.2709,-4.2731,-4.2762,-4.2778,-4.2798,-4.2822,-4.2831,-4.2858,-4.2887,-4.2886,-4.292,-4.2937,-4.297,-4.2981,-4.3007,-4.2995,-4.3007,-4.301,-4.3014,-4.3017,-4.2934,-4.3011,-4.3011,-4.3011,-4.3011,-4.301,0,-4.276,-4.2773,-4.2802,-4.2832,-4.2856,-4.2847,-4.2869,-4.289,-4.2921,-4.2939,-4.2962,-4.2997,-4.3025,-4.3035,-4.3062,-4.308,-4.3076,-4.3087,-4.3086,-4.3088,-4.3026,-4.3016,-4.309,-4.309,-4.309,-4.309,-4.3089,-4.3089,-4.2802,-4.2845,-4.285,-4.2901,-4.2914,-4.2949,-4.2963,-4.298,-4.2995,-4.3036,-4.306,-4.3067,-4.3081,-4.3109,-4.3133,-4.3136,-4.3146,-4.3158,-4.3159,-4.31,-4.3092,-4.3085,-4.3076,-4.3161,-4.3161,-4.3219,-4.322,-4.322]}]]